Big Bear Station Historical Data
Daily Summary for May 14, 2017 Units:  English    Metric   Both
« Previous Day
Next Day »
Daily Weekly Monthly Yearly Custom
  High: Low: Average:
Temperature: 62.2 °F 31.3 °F 45 °F
Dew Point: 36.4 °F -5.0 °F 20.3 °F
Humidity: 87 % 9 % 45 %
Wind Speed: 8.9 mph 0.0 mph 2.4 mph
Wind Gust: -999.0 mph - -
Wind:- - SSW
Pressure: 29.97 in 29.92 in -
Precipitation: 0.00 in    
Historical Graphs
 
 
Tabular Data for May 14, 2017
Time Temperature Dew Point Pressure Wind Wind Speed Wind Gust Humidity Rainfall Rate (Hourly)
00:03 39.9 °F 20.3 °F 29.97 in South 2.2 mph -999.0 mph 45 % 0 in
00:18 39.7 °F 19.0 °F 29.97 in SSE 1.7 mph -999.0 mph 43 % 0 in
00:33 39.6 °F 19.5 °F 29.96 in South 2.2 mph -999.0 mph 44 % 0 in
00:49 38.8 °F 21.3 °F 29.96 in SSE 1.7 mph -999.0 mph 49 % 0 in
01:04 38.7 °F 22.1 °F 29.96 in SSE 2.2 mph -999.0 mph 51 % 0 in
01:19 38.5 °F 21.5 °F 29.96 in South 2.2 mph -999.0 mph 50 % 0 in
01:34 37.2 °F 19.8 °F 29.95 in SSW 1.7 mph -999.0 mph 49 % 0 in
01:50 36.5 °F 19.6 °F 29.95 in South 2.2 mph -999.0 mph 50 % 0 in
02:05 36.1 °F 20.6 °F 29.95 in SSE 1.1 mph -999.0 mph 53 % 0 in
02:21 36.0 °F 23.8 °F 29.95 in SSE 2.2 mph -999.0 mph 61 % 0 in
02:36 35.2 °F 23.1 °F 29.95 in SSE 1.7 mph -999.0 mph 61 % 0 in
02:51 34.7 °F 21.4 °F 29.94 in SSE 1.7 mph -999.0 mph 58 % 0 in
03:06 34.2 °F 23.3 °F 29.94 in Calm   -999.0 mph 64 % 0 in
03:21 34.2 °F 26.1 °F 29.94 in South 1.7 mph -999.0 mph 72 % 0 in
03:37 33.6 °F 27.2 °F 29.94 in SSW 2.2 mph -999.0 mph 77 % 0 in
03:52 33.8 °F 28.0 °F 29.94 in South 2.2 mph -999.0 mph 79 % 0 in
04:08 33.8 °F 27.0 °F 29.94 in SSE 2.2 mph -999.0 mph 76 % 0 in
04:42 33.8 °F 24.7 °F 29.94 in South 1.7 mph -999.0 mph 69 % 0 in
04:57 33.8 °F 21.8 °F 29.94 in South 1.7 mph -999.0 mph 61 % 0 in
05:12 33.8 °F 21.4 °F 29.94 in South 1.7 mph -999.0 mph 60 % 0 in
05:28 35.4 °F 14.6 °F 29.94 in South 1.7 mph -999.0 mph 42 % 0 in
05:43 34.5 °F 14.3 °F 29.94 in Calm   -999.0 mph 43 % 0 in
05:58 34.0 °F 12.7 °F 29.94 in Calm   -999.0 mph 41 % 0 in
06:13 34.2 °F 12.4 °F 29.94 in WNW 1.1 mph -999.0 mph 40 % 0 in
06:28 35.4 °F 10.4 °F 29.94 in WNW 1.1 mph -999.0 mph 35 % 0 in
06:44 36.7 °F 9.6 °F 29.94 in Calm   -999.0 mph 32 % 0 in
06:59 38.7 °F 7.5 °F 29.94 in NNW 1.1 mph -999.0 mph 27 % 0 in
07:14 41.4 °F 6.3 °F 29.94 in NW 2.7 mph -999.0 mph 23 % 0 in
07:29 42.6 °F 7.3 °F 29.94 in Calm   -999.0 mph 23 % 0 in
07:46 44.6 °F 8.1 °F 29.94 in NNW 2.2 mph -999.0 mph 22 % 0 in
08:02 45.3 °F 4.2 °F 29.94 in WNW 6.8 mph -999.0 mph 18 % 0 in
08:18 46.8 °F 4.2 °F 29.94 in WNW 2.7 mph -999.0 mph 17 % 0 in
08:38 47.8 °F 0.8 °F 29.94 in NW 3.2 mph -999.0 mph 14 % 0 in
08:54 48.9 °F 0.1 °F 29.95 in West 2.2 mph -999.0 mph 13 % 0 in
09:10 49.8 °F 0.9 °F 29.95 in NW 3.7 mph -999.0 mph 13 % 0 in
09:26 50.2 °F -4.4 °F 29.95 in NNW 1.7 mph -999.0 mph 10 % 0 in
09:41 51.8 °F -1.1 °F 29.95 in SW 3.7 mph -999.0 mph 11 % 0 in
09:58 52.2 °F -5.0 °F 29.95 in SE 2.7 mph -999.0 mph 9 % 0 in
10:13 53.1 °F -2.1 °F 29.95 in North 7.8 mph -999.0 mph 10 % 0 in
10:28 53.6 °F 0.3 °F 29.95 in SSW 3.2 mph -999.0 mph 11 % 0 in
10:43 54.3 °F -1.2 °F 29.95 in South 4.2 mph -999.0 mph 10 % 0 in
11:01 56.5 °F 4.4 °F 29.95 in North 2.7 mph -999.0 mph 12 % 0 in
11:18 57.9 °F 5.5 °F 29.95 in SW 1.1 mph -999.0 mph 12 % 0 in
11:33 56.8 °F 4.7 °F 29.96 in SE 5.3 mph -999.0 mph 12 % 0 in
11:50 58.8 °F 6.2 °F 29.96 in ESE 3.2 mph -999.0 mph 12 % 0 in
12:06 61.3 °F 16.1 °F 29.96 in NNW 3.7 mph -999.0 mph 17 % 0 in
12:23 60.4 °F 10.9 °F 29.96 in NW 5.8 mph -999.0 mph 14 % 0 in
12:38 61.5 °F 13.4 °F 29.97 in South 5.3 mph -999.0 mph 15 % 0 in
12:55 60.4 °F 9.3 °F 29.97 in SE 1.7 mph -999.0 mph 13 % 0 in
13:10 62.2 °F 13.9 °F 29.97 in SSW 4.2 mph -999.0 mph 15 % 0 in
13:26 61.2 °F 14.6 °F 29.97 in SSW 5.8 mph -999.0 mph 16 % 0 in
13:41 59.7 °F 14.8 °F 29.97 in SSW 2.2 mph -999.0 mph 17 % 0 in
13:56 62.1 °F 21.7 °F 29.97 in NNW 3.2 mph -999.0 mph 21 % 0 in
14:12 60.1 °F 22.2 °F 29.97 in ESE 3.7 mph -999.0 mph 23 % 0 in
14:27 61.2 °F 20.9 °F 29.97 in SSE 3.2 mph -999.0 mph 21 % 0 in
14:44 58.8 °F 18.9 °F 29.97 in ESE 2.2 mph -999.0 mph 21 % 0 in
15:01 59.9 °F 30.0 °F 29.97 in West 2.7 mph -999.0 mph 32 % 0 in
15:16 56.8 °F 27.2 °F 29.97 in SW 3.7 mph -999.0 mph 32 % 0 in
15:32 57.2 °F 31.8 °F 29.96 in ESE 2.7 mph -999.0 mph 38 % 0 in
15:47 56.3 °F 29.7 °F 29.96 in WSW 4.7 mph -999.0 mph 36 % 0 in
16:04 56.8 °F 28.7 °F 29.96 in West 3.7 mph -999.0 mph 34 % 0 in
16:20 55.6 °F 30.4 °F 29.96 in NNW 6.3 mph -999.0 mph 38 % 0 in
16:37 56.7 °F 30.7 °F 29.95 in NE 5.8 mph -999.0 mph 37 % 0 in
16:54 57.7 °F 32.3 °F 29.95 in SE 1.7 mph -999.0 mph 38 % 0 in
17:10 56.5 °F 35.4 °F 29.95 in NW 8.9 mph -999.0 mph 45 % 0 in
17:25 55.6 °F 35.1 °F 29.95 in SW 4.2 mph -999.0 mph 46 % 0 in
17:41 54.0 °F 35.3 °F 29.95 in ENE 4.2 mph -999.0 mph 49 % 0 in
17:56 51.1 °F 36.4 °F 29.95 in South 2.2 mph -999.0 mph 57 % 0 in
18:11 48.4 °F 34.7 °F 29.95 in South 4.2 mph -999.0 mph 59 % 0 in
18:28 46.6 °F 35.1 °F 29.95 in East 2.7 mph -999.0 mph 64 % 0 in
18:43 44.2 °F 34.3 °F 29.95 in South 3.7 mph -999.0 mph 68 % 0 in
18:59 44.1 °F 34.6 °F 29.95 in South 2.2 mph -999.0 mph 69 % 0 in
19:14 43.0 °F 34.2 °F 29.95 in WSW 1.1 mph -999.0 mph 71 % 0 in
19:29 42.1 °F 34.4 °F 29.95 in NNW 2.7 mph -999.0 mph 74 % 0 in
19:44 41.2 °F 34.5 °F 29.94 in ENE 1.7 mph -999.0 mph 77 % 0 in
20:01 40.1 °F 33.5 °F 29.94 in Calm   -999.0 mph 77 % 0 in
20:16 39.4 °F 32.8 °F 29.94 in Calm   -999.0 mph 77 % 0 in
20:32 38.7 °F 34.3 °F 29.94 in Calm   -999.0 mph 84 % 0 in
20:47 37.9 °F 33.8 °F 29.94 in Calm   -999.0 mph 85 % 0 in
21:03 37.0 °F 32.9 °F 29.94 in Calm   -999.0 mph 85 % 0 in
21:18 36.0 °F 31.9 °F 29.93 in Calm   -999.0 mph 85 % 0 in
21:33 35.2 °F 31.1 °F 29.93 in SSE 1.1 mph -999.0 mph 85 % 0 in
21:49 35.2 °F 31.7 °F 29.93 in South 1.1 mph -999.0 mph 87 % 0 in
22:05 34.9 °F 31.4 °F 29.93 in Calm   -999.0 mph 87 % 0 in
22:22 34.3 °F 30.8 °F 29.93 in Calm   -999.0 mph 87 % 0 in
22:37 34.2 °F 30.2 °F 29.94 in Calm   -999.0 mph 85 % 0 in
22:52 32.9 °F 28.3 °F 29.93 in South 2.2 mph -999.0 mph 83 % 0 in
23:07 32.4 °F 23.7 °F 29.93 in Calm   -999.0 mph 70 % 0 in
23:23 31.6 °F 18.1 °F 29.92 in Calm   -999.0 mph 57 % 0 in
23:38 31.5 °F 20.0 °F 29.92 in South 1.7 mph -999.0 mph 62 % 0 in
23:53 31.3 °F 25.5 °F 29.92 in NE 1.7 mph -999.0 mph 79 % 0 in
Big Bear CA Weather
Compliments of Weather Underground - 1.5 mb